Regional Weather Roundup
Issued by NWS Kansas City/Pleasant Hill, MO

Home | Current Version | Previous Version | Graphics & Text | Print | Product List | Glossary Off
Versions: 1 2 3 4 5 6 7 8 9 10 11 12 13 14 15 16 17 18 19 20 21 22 23 24 25 26 27 28 29 30 31 32 33 34 35 36 37 38 39 40 41 42 43 44 45 46 47 48 49 50

688
ASUS43 KEAX 291510
RWREAX

WEATHER ROUNDUP FOR EASTERN KANSAS AND NORTHWEST MISSOURI
NATIONAL WEATHER SERVICE KANSAS CITY/PLEASANT HILL MO
1000 AM CDT WED MAR 29 2017

KSZ040-057-103>105-MOZ028-029-037-043-291600-
...KANSAS CITY METROPOLITAN AREA...

CITY           SKY/WX    TMP DP  RH WIND       PRES   REMARKS
K.C. INTL      LGT RAIN  48  47  96 E23G35    29.80F FOG
K.C. DOWNTOWN  CLOUDY    50  48  93 E21G31    29.80F
LEES SUMMIT    CLOUDY    49  49 100 E22G29    29.80F
OLATHE - IXD   RAIN      50  48  93 E23G35    29.75F FOG
OLATHE - OJC   TSTM      49  49 100 E15G29    29.78F FOG
LAWRENCE       LGT RAIN  50  49  96 NE21G30   29.75F FOG

$$

MOZ001>008-011>017-020>025-030>033-038>040-044>046-053-054-291600-
...NORTHERN AND CENTRAL MISSOURI...

CITY           SKY/WX    TMP DP  RH WIND       PRES   REMARKS
ST. JOSEPH     LGT RAIN  48  48 100 E14G28    29.85F FOG
MOSBY          RAIN      48  46  93 E22G31    29.85F
WARRENSBURG    CLOUDY    48  48 100 NE16G24   29.83F
WHITEMAN AFB   LGT RAIN  50  50 100 E15G23    29.82F
CLINTON        NOT AVBL
SEDALIA        CLOUDY    53  52  96 E16G28    29.88F
WARSAW         NOT AVBL
CHILLICOTHE      N/A     48  46  93 E12G22    29.94F
KIRKSVILLE     CLOUDY    43  43 100 E16       30.02F

$$

MOZ041-047>049-056>058-063>065-088>090-097-291600-
...EASTERN AND SOUTHERN MISSOURI...

CITY           SKY/WX    TMP DP  RH WIND       PRES   REMARKS
ST. LOUIS INTL LGT RAIN  52  47  83 E18       30.02F
SPIRIT OF STL  CLOUDY    52  48  86 E8        30.02F
COLUMBIA       CLOUDY    50  48  93 E20G26    29.94F
JEFFERSON CITY CLOUDY    53  48  83 NE15G24   29.93F
ROLLA          CLOUDY    55  52  89 E21G26    29.91F
OSAGE BEACH    CLOUDY    56  52  86 E12       29.89F
SPRINGFIELD    PTSUNNY   58  53  84 SE20G31   29.82R
BRANSON        CLOUDY    55  54  94 SE12G21   29.88R
JOPLIN         CLOUDY    58  56  93 E26G38    29.64F
WEST PLAINS    CLOUDY    58  53  84 E14G23    29.92F

$$

IAZ060-094-KSZ022-034>040-054-083-096-NEZ052-066-093-291600-
...KANSAS...SOUTHEAST NEBRASKA AND IOWA...

CITY           SKY/WX    TMP DP  RH WIND       PRES   REMARKS
TOPEKA         LGT RAIN  50  50 100 E14G25    29.75F FOG
MANHATTAN      LGT RAIN  49  49 100 NE20G28   29.75F FOG
EMPORIA        LGT RAIN  51  51 100 E23G30    29.65F FOG
CHANUTE        CLOUDY    58  55  90 SE17      29.64R
WICHITA        CLOUDY    54  52  93 NE12      29.61R
OMAHA          LGT RAIN  45  40  82 NE18      30.01S
LINCOLN        LGT RAIN  46  44  93 NE18G25   29.97F FOG
FALLS CITY     LGT RAIN  47  46  97 NE20      29.87F
LAMONI         LGT RAIN  43  41  93 E17G26    29.96F FOG
DES MOINES     LGT RAIN  42  40  92 E12G20    30.07R FOG

$$





USA.gov is the U.S. government's official web portal to all federal, state and local government web resources and services.